Flag for Norway Weather past 2 weeks in Ålgård, Norway

Now
41 °F

Broken clouds.


Feels Like: 39 °F
Forecast: 36 / 43 °F
Wind: 3 mph from Northwest

Location: Stavanger / Sola

Current Time: Jan 26, 2015 at 4:22:49 PM

Latest Report: Jan 26, 2015 at 3:50 PM


Visibility: N/A

Pressure: 29.71 "Hg

Humidity: 87%

Dew point: 37 °F

Location of ÅlgårdLocation

Historic Weather in Ålgård — Graph

°F

Ålgård temperature yesterday

Maximum temperature yesterday: 45 °F (at 11:50 PM)
Minimum temperature yesterday: 32 °F (at 4:50 AM)
Average temperature yesterday: 39 °F

Past Weeks' High & Low Weather Summary

 TemperatureHumidityPressure
High48 °F (Jan 12, 11:20 AM)100% (Jan 18, 9:20 PM)30.21 "Hg (Jan 18, 9:20 PM)
Low23 °F (Jan 22, 4:50 AM)45% (Jan 21, 3:50 PM)28.59 "Hg (Jan 16, 3:50 AM)
Average39 °F77%29.60 "Hg
* Reported Jan 11 2:20 PM — Jan 26 2:50 PM, Ålgård, Weather by CustomWeather, © 2014

Note: Actual official high and low records may vary slightly from our data, if they occured in-between our weather recording intervals... More about our weather records

Advertising

Ålgård weather history for previous 24 hours

 ConditionsComfort  
Time TempWeatherWind HumidityBarometerVisibility
2:50 PM
Jan 26
41 °FScattered showers. Scattered clouds.6 mph87%29.71 "HgN/A
2:20 PM41 °FLight rain. Broken clouds.2 mph93%29.71 "HgN/A
1:50 PM41 °FDrizzle. Partly sunny.10 mph87%29.71 "HgN/A
1:20 PM43 °FScattered showers. Partly sunny.1 mph81%29.71 "HgN/A
12:50 PM41 °FPartly sunny.2 mph81%29.71 "HgN/A
12:20 PM43 °FRain showers. Partly sunny.15 mph76%29.74 "HgN/A
11:50 AM43 °FPartly sunny.8 mph81%29.74 "HgN/A
11:20 AM45 °FPartly sunny.7 mph81%29.74 "HgN/A
10:50 AM43 °FPartly sunny.6 mph87%29.74 "HgN/A
10:20 AM43 °FScattered clouds.8 mph87%29.74 "HgN/A
9:50 AM43 °FScattered clouds.12 mph87%29.74 "HgN/A
9:20 AM45 °FPartly sunny.7 mph87%29.74 "HgN/A
8:50 AM45 °FPassing clouds.6 mph87%29.74 "HgN/A
8:20 AM45 °FPassing clouds.5 mph87%29.74 "HgN/A
7:50 AM45 °FPassing clouds.7 mph93%29.77 "HgN/A
7:20 AM45 °FPartly cloudy.8 mph93%29.77 "HgN/A
6:50 AM45 °FPartly cloudy.7 mph100%29.77 "HgN/A
6:20 AM45 °FPartly cloudy.10 mph100%29.77 "Hg4 mi
5:50 AM45 °FPartly cloudy.3 mph100%29.77 "Hg4 mi
5:20 AM45 °FPassing clouds.6 mph100%29.77 "Hg4 mi
4:50 AM45 °FLight rain. Passing clouds.7 mph100%29.77 "Hg4 mi
3:50 AM45 °FLight rain. Partly cloudy.8 mph100%29.80 "Hg4 mi
2:50 AM45 °FLight rain. Low clouds.12 mph100%29.80 "Hg3 mi
1:50 AM45 °FLight rain. Low clouds.12 mph93%29.83 "Hg3 mi
1:20 AM45 °FLight rain. Fog.16 mph93%29.83 "Hg2 mi
12:50 AM45 °FLight rain. Fog.16 mph93%29.86 "Hg2 mi
12:20 AM43 °FDrizzle. Low clouds.17 mph100%29.86 "Hg3 mi
11:50 PM
Jan 25
45 °FLight rain. Passing clouds.20 mph93%29.89 "Hg3 mi
11:20 PM43 °FLight rain. Passing clouds.17 mph100%29.89 "Hg3 mi
10:50 PM43 °FPassing clouds.17 mph100%29.89 "Hg3 mi
10:20 PM43 °FLight rain. Low clouds.17 mph100%29.92 "Hg4 mi
9:50 PM43 °FDrizzle. Mostly cloudy.21 mph100%29.92 "Hg4 mi
9:20 PM43 °FDrizzle. Mostly cloudy.20 mph93%29.92 "HgN/A
8:50 PM43 °FDrizzle. Mostly cloudy.21 mph93%29.92 "Hg6 mi
8:20 PM43 °FPassing clouds.18 mph93%29.95 "Hg6 mi
7:50 PM43 °FPartly cloudy.18 mph93%29.95 "Hg4 mi
7:20 PM43 °FDrizzle. Fog.16 mph93%29.98 "Hg3 mi
6:50 PM43 °FPartly cloudy.14 mph93%30.01 "Hg4 mi
6:20 PM41 °FDrizzle. Mostly cloudy.13 mph93%30.01 "Hg4 mi
5:50 PM41 °FPartly cloudy.14 mph93%30.01 "HgN/A
5:20 PM41 °FPassing clouds.14 mph93%30.01 "Hg6 mi
4:50 PM41 °FPassing clouds.9 mph87%30.04 "HgN/A
4:20 PM41 °FScattered showers. Partly sunny.12 mph87%30.04 "HgN/A
Weather by CustomWeather, © 2014

See weather overviewHow to use our weather pages